Milwaukee, WI

3:15 AM CDT on May 26, 2018 (GMT -0500)
Gen Mitchell International

Weather History for KMKE - October, 2010

Change the Weather History Date:

Sunday, October 3, 2010

  Actual Average Record
Temperature  
Mean Temperature 48 °F 56 °F  
Max Temperature 54 °F 64 °F 86 °F (2005)
Min Temperature 42 °F 48 °F 27 °F (1974)
Degree Days  
Heating Degree Days 17 10  
Month to date heating degree days 39 28  
Since 1 July heating degree days 157 180  
Cooling Degree Days 0 1  
Month to date cooling degree days 0 3  
Year to date cooling degree days 941 637  
Moisture  
Dew Point 39 °F    
Average Humidity 71    
Maximum Humidity 83    
Minimum Humidity 59    
Precipitation  
Precipitation 0.01 in 0.09 in 2.27 in (1911)
Month to date precipitation 0.04 0.27  
Year to date precipitation 31.01 27.63  
Snow  
Snow 0.00 in 0.00 in 0.00 in ()
Month to date snowfall 0.0 0.0  
Since 1 July snowfall 0.0 0.0  
Since 1 September snowfall 0.0 0.0  
Snow Depth 0.00 in    
Sea Level Pressure  
Sea Level Pressure 30.41 in    
Wind  
Wind Speed 9 mph (North)    
Max Wind Speed 18 mph    
Max Gust Speed 22 mph    
Visibility 10 miles    
Events      
T = Trace of Precipitation, MM = Missing Value Source: NWS Daily Summary

Daily Weather History Graph

Daily Weather History Graph

Search for Another Location

Airport or City:

Astronomy

Oct. 03, 2010 Rise Set
Actual Time 6:51 AM CDT 6:29 PM CDT
Civil Twilight 6:22 AM CDT 6:57 PM CDT
Nautical Twilight 5:49 AM CDT 7:30 PM CDT
Astronomical Twilight 5:16 AM CDT 8:03 PM CDT
Moon 1:38 AM CDT (10/3) 4:00 PM CDT (10/3)
Length of Visible Light 12h 34m
Length of Day
11h 38m
Waning Crescent, 23% of the Moon is Illuminated
Oct 3
Waning Crescent
Oct 7
New
Oct 14
First Quarter
Oct 22
Full
Oct 30
Last Quarter

Hourly Weather History & Observations

Time (CDT) Temp. Windchill Dew Point Humidity Pressure Visibility Wind Dir Wind Speed Gust Speed Precip Events Conditions
12:52 AM 43.0 °F 38.2 °F 34.0 °F 71% 30.33 in 10.0 mi NNW 8.1 mph - N/A   Scattered Clouds
1:52 AM 43.0 °F 37.7 °F 34.0 °F 71% 30.35 in 10.0 mi NNW 9.2 mph - N/A   Scattered Clouds
2:52 AM 42.1 °F 37.1 °F 34.0 °F 73% 30.35 in 10.0 mi NNW 8.1 mph - N/A   Scattered Clouds
3:52 AM 43.0 °F 37.7 °F 35.1 °F 74% 30.35 in 10.0 mi NNW 9.2 mph - N/A   Mostly Cloudy
4:52 AM 43.0 °F 38.2 °F 36.0 °F 76% 30.37 in 10.0 mi NNW 8.1 mph - N/A   Mostly Cloudy
5:52 AM 43.0 °F 38.8 °F 36.0 °F 76% 30.38 in 10.0 mi NNW 6.9 mph - N/A   Mostly Cloudy
6:52 AM 42.1 °F 36.6 °F 36.0 °F 79% 30.40 in 10.0 mi NNW 9.2 mph - N/A   Mostly Cloudy
7:52 AM 43.0 °F 38.8 °F 36.0 °F 76% 30.43 in 10.0 mi NNW 6.9 mph - N/A   Mostly Cloudy
8:52 AM 46.0 °F 41.9 °F 37.0 °F 71% 30.44 in 10.0 mi NNW 8.1 mph - 0.00 in   Mostly Cloudy
9:40 AM 48.2 °F - 39.2 °F 71% 30.42 in 10.0 mi North 10.4 mph - 0.00 in   Mostly Cloudy
9:52 AM 48.9 °F - 41.0 °F 74% 30.44 in 10.0 mi North 9.2 mph 16.1 mph 0.00 in   Light Drizzle
10:04 AM 48.2 °F - 42.8 °F 82% 30.43 in 10.0 mi North 11.5 mph - 0.00 in   Light Drizzle
10:52 AM 51.1 °F - 42.1 °F 71% 30.44 in 10.0 mi North 12.7 mph - 0.00 in   Mostly Cloudy
10:59 AM 51.8 °F - 42.8 °F 71% 30.43 in 10.0 mi North 15.0 mph 20.7 mph 0.01 in   Mostly Cloudy
11:52 AM 52.0 °F - 43.0 °F 71% 30.45 in 10.0 mi NNE 15.0 mph 20.7 mph 0.01 in   Mostly Cloudy
12:52 PM 54.0 °F - 39.9 °F 59% 30.44 in 10.0 mi NNE 16.1 mph 20.7 mph N/A   Mostly Cloudy
1:52 PM 54.0 °F - 42.1 °F 64% 30.42 in 10.0 mi NNE 11.5 mph - N/A   Mostly Cloudy
2:52 PM 53.1 °F - 39.9 °F 61% 30.41 in 10.0 mi NE 10.4 mph - N/A   Mostly Cloudy
3:52 PM 53.1 °F - 41.0 °F 64% 30.41 in 10.0 mi North 11.5 mph - N/A   Scattered Clouds
4:52 PM 52.0 °F - 39.9 °F 63% 30.41 in 10.0 mi NNE 15.0 mph 20.7 mph N/A   Scattered Clouds
5:52 PM 50.0 °F - 39.9 °F 68% 30.41 in 10.0 mi NNE 10.4 mph - N/A   Scattered Clouds
6:52 PM 48.0 °F - 39.0 °F 71% 30.40 in 10.0 mi NNE 5.8 mph - N/A   Partly Cloudy
7:52 PM 46.9 °F - 39.0 °F 74% 30.41 in 10.0 mi NNE 4.6 mph - N/A   Clear
8:52 PM 46.9 °F - 39.9 °F 77% 30.41 in 10.0 mi North 3.5 mph - N/A   Clear
9:52 PM 46.0 °F 44.8 °F 39.0 °F 76% 30.41 in 10.0 mi North 3.5 mph - N/A   Clear
10:52 PM 45.0 °F 42.6 °F 39.9 °F 82% 30.41 in 10.0 mi NW 4.6 mph - N/A   Partly Cloudy
11:52 PM 44.1 °F 40.8 °F 39.0 °F 82% 30.40 in 10.0 mi WNW 5.8 mph - N/A   Partly Cloudy